Terminal Aerodrome Forecast
Issued by NWS Blacksburg, VA

Home | Current Version | Previous Version | Text Only | Print | Product List | Glossary On
Versions: 1 2 3 4 5 6 7 8 9 10 11 12 13 14 15 16 17 18 19 20 21 22 23 24 25 26 27 28 29 30 31 32 33 34 35 36 37 38 39 40 41 42 43 44
000
FTUS41 KRNK 031724
TAFROA
TAF
KROA 031724Z 0318/0418 15004KT 6SM -DZ BR OVC028
     FM040200 20005KT 1 1/2SM BR OVC015
     FM040800 23006KT 4SM BR OVC008 WS020/25045KT
     FM041300 26008KT P6SM -RA OVC025=

USA.gov is the U.S. government's official web portal to all federal, state and local government web resources and services.